Year,Month,Day,Hour,Minute,Value (Times are PST for windspeed in km/hr)
2021,11,15,00,00,2.70
2021,11,15,00,01,0.90
2021,11,15,00,02,0.10
2021,11,15,00,03,1.40
2021,11,15,00,04,2.20
2021,11,15,00,05,0.20
2021,11,15,00,06,1.10
2021,11,15,00,07,0.00
2021,11,15,00,08,0.00
2021,11,15,00,09,0.00
2021,11,15,00,10,0.00
2021,11,15,00,11,0.00
2021,11,15,00,12,0.00
2021,11,15,00,13,0.20
2021,11,15,00,14,0.70
2021,11,15,00,15,0.50
2021,11,15,00,16,0.00
2021,11,15,00,17,0.00
2021,11,15,00,18,0.00
2021,11,15,00,19,0.00
2021,11,15,00,20,0.00
2021,11,15,00,21,0.00
2021,11,15,00,22,0.00
2021,11,15,00,23,0.10
2021,11,15,00,24,0.00
2021,11,15,00,25,0.00
2021,11,15,00,26,0.00
2021,11,15,00,27,0.30
2021,11,15,00,28,0.00
2021,11,15,00,29,0.10
2021,11,15,00,30,0.00
2021,11,15,00,31,0.00
2021,11,15,00,32,0.00
2021,11,15,00,33,0.00
2021,11,15,00,34,0.00
2021,11,15,00,35,0.00
2021,11,15,00,36,0.00
2021,11,15,00,37,0.00
2021,11,15,00,38,0.00
2021,11,15,00,39,0.80
2021,11,15,00,40,0.30
2021,11,15,00,41,2.00
2021,11,15,00,42,1.40
2021,11,15,00,43,0.10
2021,11,15,00,44,0.10
2021,11,15,00,45,0.00
2021,11,15,00,46,0.00
2021,11,15,00,47,0.00
2021,11,15,00,48,0.00
2021,11,15,00,49,0.00
2021,11,15,00,50,0.00
2021,11,15,00,51,1.10
2021,11,15,00,52,0.60
2021,11,15,00,53,0.20
2021,11,15,00,54,0.00
2021,11,15,00,55,0.00
2021,11,15,00,56,0.00
2021,11,15,00,57,0.00
2021,11,15,00,58,0.00
2021,11,15,00,59,0.00
2021,11,15,01,00,0.00
2021,11,15,01,01,0.10
2021,11,15,01,02,0.00
2021,11,15,01,03,0.00
2021,11,15,01,04,0.00
2021,11,15,01,05,0.00
2021,11,15,01,06,0.00
2021,11,15,01,07,0.00
2021,11,15,01,08,0.00
2021,11,15,01,09,0.00
2021,11,15,01,10,0.00
2021,11,15,01,11,0.00
2021,11,15,01,12,0.00
2021,11,15,01,13,0.40
2021,11,15,01,14,0.50
2021,11,15,01,15,0.10
2021,11,15,01,16,0.00
2021,11,15,01,17,0.00
2021,11,15,01,18,0.00
2021,11,15,01,19,1.60
2021,11,15,01,20,4.80
2021,11,15,01,21,7.90
2021,11,15,01,22,6.40
2021,11,15,01,23,6.20
2021,11,15,01,24,3.80
2021,11,15,01,25,1.90
2021,11,15,01,26,0.20
2021,11,15,01,27,0.20
2021,11,15,01,28,0.10
2021,11,15,01,29,0.00
2021,11,15,01,30,0.00
2021,11,15,01,31,0.00
2021,11,15,01,32,0.00
2021,11,15,01,33,0.00
2021,11,15,01,34,0.00
2021,11,15,01,35,0.00
2021,11,15,01,36,0.00
2021,11,15,01,37,0.00
2021,11,15,01,38,0.00
2021,11,15,01,39,0.00
2021,11,15,01,40,0.20
2021,11,15,01,41,0.00
2021,11,15,01,42,0.00
2021,11,15,01,43,0.00
2021,11,15,01,44,0.00
2021,11,15,01,45,0.10
2021,11,15,01,46,0.20
2021,11,15,01,47,0.20
2021,11,15,01,48,0.00
2021,11,15,01,49,0.00
2021,11,15,01,50,0.00
2021,11,15,01,51,0.00
2021,11,15,01,52,0.00
2021,11,15,01,53,0.00
2021,11,15,01,54,0.00
2021,11,15,01,55,0.00
2021,11,15,01,56,0.00
2021,11,15,01,57,0.00
2021,11,15,01,58,0.00
2021,11,15,01,59,0.00
2021,11,15,02,00,0.00
2021,11,15,02,01,0.00
2021,11,15,02,02,0.00
2021,11,15,02,03,0.50
2021,11,15,02,04,2.00
2021,11,15,02,05,2.20
2021,11,15,02,06,0.90
2021,11,15,02,07,1.50
2021,11,15,02,08,1.00
2021,11,15,02,09,0.00
2021,11,15,02,10,0.00
2021,11,15,02,11,0.00
2021,11,15,02,12,0.00
2021,11,15,02,13,0.00
2021,11,15,02,14,0.30
2021,11,15,02,15,0.40
2021,11,15,02,16,0.20
2021,11,15,02,17,0.40
2021,11,15,02,18,0.00
2021,11,15,02,19,0.00
2021,11,15,02,20,0.00
2021,11,15,02,21,0.20
2021,11,15,02,22,0.90
2021,11,15,02,23,1.50
2021,11,15,02,24,0.80
2021,11,15,02,25,0.00
2021,11,15,02,26,0.00
2021,11,15,02,27,0.00
2021,11,15,02,28,2.30
2021,11,15,02,29,2.50
2021,11,15,02,30,1.60
2021,11,15,02,31,0.00
2021,11,15,02,32,0.00
2021,11,15,02,33,0.20
2021,11,15,02,34,0.10
2021,11,15,02,35,0.00
2021,11,15,02,36,0.00
2021,11,15,02,37,0.00
2021,11,15,02,38,0.00
2021,11,15,02,39,0.10
2021,11,15,02,40,0.50
2021,11,15,02,41,2.50
2021,11,15,02,42,3.20
2021,11,15,02,43,3.20
2021,11,15,02,44,3.20
2021,11,15,02,45,2.30
2021,11,15,02,46,1.90
2021,11,15,02,47,0.20
2021,11,15,02,48,0.00
2021,11,15,02,49,0.00
2021,11,15,02,50,0.00
2021,11,15,02,51,0.00
2021,11,15,02,52,0.00
2021,11,15,02,53,0.00
2021,11,15,02,54,0.00
2021,11,15,02,55,0.00
2021,11,15,02,56,0.00
2021,11,15,02,57,0.00
2021,11,15,02,58,0.00
2021,11,15,02,59,0.00
2021,11,15,03,00,0.00
2021,11,15,03,01,0.00
2021,11,15,03,02,1.90
2021,11,15,03,03,3.50
2021,11,15,03,04,2.00
2021,11,15,03,05,0.00
2021,11,15,03,06,0.00
2021,11,15,03,07,0.00
2021,11,15,03,08,0.00
2021,11,15,03,09,0.00
2021,11,15,03,10,0.00
2021,11,15,03,11,0.00
2021,11,15,03,12,0.00
2021,11,15,03,13,0.00
2021,11,15,03,14,0.00
2021,11,15,03,15,0.00
2021,11,15,03,16,0.00
2021,11,15,03,17,0.00
2021,11,15,03,18,0.00
2021,11,15,03,19,0.00
2021,11,15,03,20,0.00
2021,11,15,03,21,0.00
2021,11,15,03,22,0.00
2021,11,15,03,23,0.00
2021,11,15,03,24,0.00
2021,11,15,03,25,0.00
2021,11,15,03,26,0.00
2021,11,15,03,27,0.10
2021,11,15,03,28,0.00
2021,11,15,03,29,0.00
2021,11,15,03,30,0.00
2021,11,15,03,31,0.00
2021,11,15,03,32,0.00
2021,11,15,03,33,0.00
2021,11,15,03,34,0.00
2021,11,15,03,35,0.10
2021,11,15,03,36,0.00
2021,11,15,03,37,0.00
2021,11,15,03,38,0.20
2021,11,15,03,39,0.60
2021,11,15,03,40,1.20
2021,11,15,03,41,3.10
2021,11,15,03,42,3.00
2021,11,15,03,43,4.00
2021,11,15,03,44,0.10
2021,11,15,03,45,0.30
2021,11,15,03,46,0.80
2021,11,15,03,47,1.00
2021,11,15,03,48,0.10
2021,11,15,03,49,0.00
2021,11,15,03,50,0.80
2021,11,15,03,51,1.50
2021,11,15,03,52,0.60
2021,11,15,03,53,0.60
2021,11,15,03,54,0.50
2021,11,15,03,55,0.10
2021,11,15,03,56,0.10
2021,11,15,03,57,0.10
2021,11,15,03,58,1.50
2021,11,15,03,59,6.40
2021,11,15,04,00,5.40
2021,11,15,04,01,0.30
2021,11,15,04,02,0.00
2021,11,15,04,03,1.90
2021,11,15,04,04,5.90
2021,11,15,04,05,4.90
2021,11,15,04,06,3.10
2021,11,15,04,07,1.90
2021,11,15,04,08,1.00
2021,11,15,04,09,0.90
2021,11,15,04,10,0.10
2021,11,15,04,11,1.30
2021,11,15,04,12,3.70
2021,11,15,04,13,4.70
2021,11,15,04,14,1.20
2021,11,15,04,15,0.20
2021,11,15,04,16,1.10
2021,11,15,04,17,0.00
2021,11,15,04,18,0.30
2021,11,15,04,19,3.10
2021,11,15,04,20,3.90
2021,11,15,04,21,2.20
2021,11,15,04,22,4.90
2021,11,15,04,23,4.70
2021,11,15,04,24,6.60
2021,11,15,04,25,2.50
2021,11,15,04,26,6.00
2021,11,15,04,27,7.80
2021,11,15,04,28,10.00
2021,11,15,04,29,8.90
2021,11,15,04,30,8.60
2021,11,15,04,31,7.60
2021,11,15,04,32,5.60
2021,11,15,04,33,0.90
2021,11,15,04,34,0.00
2021,11,15,04,35,0.30
2021,11,15,04,36,0.00
2021,11,15,04,37,2.00
2021,11,15,04,38,4.00
2021,11,15,04,39,0.70
2021,11,15,04,40,0.20
2021,11,15,04,41,1.70
2021,11,15,04,42,0.10
2021,11,15,04,43,2.50
2021,11,15,04,44,1.60
2021,11,15,04,45,1.90
2021,11,15,04,46,1.10
2021,11,15,04,47,1.20
2021,11,15,04,48,3.10
2021,11,15,04,49,1.80
2021,11,15,04,50,3.30
2021,11,15,04,51,3.40
2021,11,15,04,52,5.70
2021,11,15,04,53,0.90
2021,11,15,04,54,1.40
2021,11,15,04,55,1.80
2021,11,15,04,56,0.70
2021,11,15,04,57,1.40
2021,11,15,04,58,1.10
2021,11,15,04,59,6.80
2021,11,15,05,00,5.30
2021,11,15,05,01,4.50
2021,11,15,05,02,4.10
2021,11,15,05,03,4.60
2021,11,15,05,04,5.10
2021,11,15,05,05,3.70
2021,11,15,05,06,6.90
2021,11,15,05,07,3.60
2021,11,15,05,08,6.80
2021,11,15,05,09,7.90
2021,11,15,05,10,4.80
2021,11,15,05,11,3.40
2021,11,15,05,12,5.70
2021,11,15,05,13,6.50
2021,11,15,05,14,3.20
2021,11,15,05,15,5.60
2021,11,15,05,16,5.30
2021,11,15,05,17,3.20
2021,11,15,05,18,5.60
2021,11,15,05,19,8.60
2021,11,15,05,20,7.40
2021,11,15,05,21,2.90
2021,11,15,05,22,8.40
2021,11,15,05,23,4.60
2021,11,15,05,24,2.90
2021,11,15,05,25,2.20
2021,11,15,05,26,0.60
2021,11,15,05,27,0.40
2021,11,15,05,28,0.10
2021,11,15,05,29,0.30
2021,11,15,05,30,5.20
2021,11,15,05,31,1.00
2021,11,15,05,32,5.90
2021,11,15,05,33,8.00
2021,11,15,05,34,4.90
2021,11,15,05,35,4.80
2021,11,15,05,36,4.80
2021,11,15,05,37,4.80
2021,11,15,05,38,5.50
2021,11,15,05,39,4.40
2021,11,15,05,40,2.00
2021,11,15,05,41,2.50
2021,11,15,05,42,1.70
2021,11,15,05,43,1.50
2021,11,15,05,44,3.70
2021,11,15,05,45,5.80
2021,11,15,05,46,2.50
2021,11,15,05,47,0.50
2021,11,15,05,48,0.00
2021,11,15,05,49,0.20
2021,11,15,05,50,0.20
2021,11,15,05,51,2.80
2021,11,15,05,52,5.60
2021,11,15,05,53,4.80
2021,11,15,05,54,4.80
2021,11,15,05,55,4.80
2021,11,15,05,56,4.80
2021,11,15,05,57,4.80
2021,11,15,05,58,4.80
2021,11,15,05,59,4.80
2021,11,15,06,00,4.80
2021,11,15,06,01,4.80
2021,11,15,06,02,4.80
2021,11,15,11,08,35.80
2021,11,15,11,09,28.70
2021,11,15,11,10,26.60
2021,11,15,11,11,29.50
2021,11,15,11,12,30.90
2021,11,15,11,13,27.90
2021,11,15,11,14,28.20
2021,11,15,11,15,25.70
2021,11,15,11,16,29.60
2021,11,15,11,17,25.60
2021,11,15,11,18,25.10
2021,11,15,11,19,27.20
2021,11,15,11,20,36.10
2021,11,15,11,21,35.50
2021,11,15,11,22,24.30
2021,11,15,11,23,23.50
2021,11,15,11,24,31.50
2021,11,15,11,25,32.00
2021,11,15,11,26,26.70
2021,11,15,11,27,28.60
2021,11,15,11,28,24.10
2021,11,15,11,29,25.70
2021,11,15,11,30,29.20
2021,11,15,11,31,37.80
2021,11,15,11,32,33.50
2021,11,15,11,33,31.10
2021,11,15,11,34,34.10
2021,11,15,11,35,30.30
2021,11,15,11,36,30.80
2021,11,15,11,37,37.90
2021,11,15,11,38,30.10
2021,11,15,11,39,30.60
2021,11,15,11,40,34.90
2021,11,15,11,41,35.20
2021,11,15,11,42,35.20
2021,11,15,11,43,33.80
2021,11,15,11,44,37.10
2021,11,15,11,45,44.70
2021,11,15,11,46,44.40
2021,11,15,11,47,37.80
2021,11,15,11,48,35.80
2021,11,15,11,49,35.80
2021,11,15,11,50,37.20
2021,11,15,11,51,34.90
2021,11,15,11,52,40.60
2021,11,15,11,53,41.40
2021,11,15,11,54,40.40
2021,11,15,11,55,38.70
2021,11,15,11,56,39.90
2021,11,15,11,57,43.50
2021,11,15,11,58,38.90
2021,11,15,11,59,35.60
2021,11,15,12,00,35.90
2021,11,15,12,01,40.90
2021,11,15,12,02,27.90
2021,11,15,12,03,38.20
2021,11,15,12,04,36.80
2021,11,15,12,05,28.40
2021,11,15,12,06,40.20
2021,11,15,12,07,34.40
2021,11,15,12,08,38.10
2021,11,15,12,09,35.10
2021,11,15,12,10,38.40
2021,11,15,12,11,35.00
2021,11,15,12,12,33.20
2021,11,15,12,13,41.00
2021,11,15,12,14,55.00
2021,11,15,12,15,37.20
2021,11,15,12,16,34.00
2021,11,15,12,17,29.40
2021,11,15,12,18,41.20
2021,11,15,12,19,47.00
2021,11,15,12,20,32.00
2021,11,15,12,21,42.10
2021,11,15,12,22,35.00
2021,11,15,12,23,42.40
2021,11,15,12,24,43.70
2021,11,15,12,25,28.70
2021,11,15,12,26,32.00
2021,11,15,12,27,40.80
2021,11,15,12,28,38.20
2021,11,15,12,29,59.50
2021,11,15,12,30,47.50
2021,11,15,12,31,42.70
2021,11,15,12,32,44.40
2021,11,15,12,33,34.20
2021,11,15,12,34,33.70
2021,11,15,12,35,38.20
2021,11,15,12,36,25.70
2021,11,15,12,37,31.60
2021,11,15,12,38,42.60
2021,11,15,12,39,37.30
2021,11,15,12,40,32.10
2021,11,15,12,41,38.80
2021,11,15,12,42,41.80
2021,11,15,12,43,37.30
2021,11,15,12,44,44.30
2021,11,15,12,45,38.40
2021,11,15,12,46,36.50
2021,11,15,12,47,39.90
2021,11,15,12,48,38.20
2021,11,15,12,49,45.10
2021,11,15,12,50,41.20
2021,11,15,12,51,37.60
2021,11,15,12,52,33.70
2021,11,15,12,53,28.80
2021,11,15,12,54,47.20
2021,11,15,12,55,42.20
2021,11,15,12,56,31.20
2021,11,15,12,57,36.80
2021,11,15,12,58,37.30
2021,11,15,12,59,37.30
2021,11,15,13,00,36.10
2021,11,15,13,01,38.10
2021,11,15,13,02,40.50
2021,11,15,13,03,43.60
2021,11,15,13,04,37.20
2021,11,15,13,05,26.90
2021,11,15,13,06,34.30
2021,11,15,13,07,39.70
2021,11,15,13,08,35.10
2021,11,15,13,09,26.60
2021,11,15,13,10,32.30
2021,11,15,13,11,44.00
2021,11,15,13,12,39.40
2021,11,15,13,13,35.60
2021,11,15,13,14,30.30
2021,11,15,13,15,35.60
2021,11,15,13,16,47.50
2021,11,15,13,17,45.10
2021,11,15,13,18,29.40
2021,11,15,13,19,37.30
2021,11,15,13,20,32.00
2021,11,15,13,21,26.40
2021,11,15,13,22,30.20
2021,11,15,13,23,35.70
2021,11,15,13,24,38.90
2021,11,15,13,25,38.80
2021,11,15,13,26,36.60
2021,11,15,13,27,33.50
2021,11,15,13,28,27.20
2021,11,15,13,29,27.10
2021,11,15,13,30,24.10
2021,11,15,13,31,25.20
2021,11,15,13,32,32.90
2021,11,15,13,33,32.00
2021,11,15,13,34,31.20
2021,11,15,13,35,29.20
2021,11,15,13,36,41.80
2021,11,15,13,37,36.90
2021,11,15,13,38,36.00
2021,11,15,13,39,31.30
2021,11,15,13,40,34.50
2021,11,15,13,41,25.40
2021,11,15,13,42,33.00
2021,11,15,13,43,34.90
2021,11,15,13,44,39.20
2021,11,15,13,45,36.90
2021,11,15,13,46,37.00
2021,11,15,13,47,37.00
2021,11,15,13,48,37.00
2021,11,15,13,49,37.00
2021,11,15,13,50,33.00
2021,11,15,13,51,30.50
2021,11,15,13,52,35.50
2021,11,15,13,53,35.00
2021,11,15,13,54,35.50
2021,11,15,13,55,36.80
2021,11,15,13,56,36.80
2021,11,15,13,57,35.90
2021,11,15,13,58,35.20
2021,11,15,13,59,42.40
2021,11,15,14,00,32.40
2021,11,15,14,01,39.80
2021,11,15,14,02,34.00
2021,11,15,14,03,35.80
2021,11,15,14,04,38.10
2021,11,15,14,05,37.90
2021,11,15,14,06,43.90
2021,11,15,14,07,36.40
2021,11,15,14,08,35.00
2021,11,15,14,09,37.70
2021,11,15,14,10,32.60
2021,11,15,14,11,40.00
2021,11,15,14,12,33.00
2021,11,15,14,13,25.90
2021,11,15,14,14,25.80
2021,11,15,14,15,28.10
2021,11,15,14,16,31.30
2021,11,15,14,17,29.00
2021,11,15,14,18,31.10
2021,11,15,14,19,29.20
2021,11,15,14,20,25.40
2021,11,15,14,21,38.00
2021,11,15,14,22,39.80
2021,11,15,14,23,43.90
2021,11,15,14,24,31.30
2021,11,15,14,25,29.10
2021,11,15,14,26,32.00
2021,11,15,14,27,38.80
2021,11,15,14,28,38.60
2021,11,15,14,29,34.50
2021,11,15,14,30,30.60
2021,11,15,14,31,32.00
2021,11,15,14,32,32.50
2021,11,15,14,33,27.40
2021,11,15,14,34,27.70
2021,11,15,14,35,28.40
2021,11,15,14,36,28.80
2021,11,15,14,37,30.50
2021,11,15,14,38,38.50
2021,11,15,14,39,37.70
2021,11,15,14,40,30.70
2021,11,15,14,41,28.80
2021,11,15,14,42,28.20
2021,11,15,14,43,39.20
2021,11,15,14,44,41.90
2021,11,15,14,45,33.50
2021,11,15,14,46,31.30
2021,11,15,14,47,30.00
2021,11,15,14,48,36.00
2021,11,15,14,49,31.70
2021,11,15,14,50,30.30
2021,11,15,14,51,36.80
2021,11,15,14,52,32.30
2021,11,15,14,53,40.70
2021,11,15,14,54,29.10
2021,11,15,14,55,28.10
2021,11,15,14,56,32.20
2021,11,15,14,57,28.00
2021,11,15,14,58,25.10
2021,11,15,14,59,32.80
2021,11,15,15,00,28.10
2021,11,15,15,01,39.00
2021,11,15,15,02,34.00
2021,11,15,15,03,46.20
2021,11,15,15,04,30.70
2021,11,15,15,05,28.10
2021,11,15,15,06,40.10
2021,11,15,15,07,42.20
2021,11,15,15,08,39.40
2021,11,15,15,09,45.30
2021,11,15,15,10,32.10
2021,11,15,15,11,32.60
2021,11,15,15,12,26.70
2021,11,15,15,13,38.00
2021,11,15,15,14,37.60
2021,11,15,15,15,33.20
2021,11,15,15,16,42.40
2021,11,15,15,17,36.50
2021,11,15,15,18,32.60
2021,11,15,15,19,35.80
2021,11,15,15,20,30.70
2021,11,15,15,21,33.20
2021,11,15,15,22,25.00
2021,11,15,15,23,35.50
2021,11,15,15,24,35.30
2021,11,15,15,25,33.60
2021,11,15,15,26,29.60
2021,11,15,15,27,37.40
2021,11,15,15,28,32.30
2021,11,15,15,29,34.90
2021,11,15,15,30,34.80
2021,11,15,15,31,32.80
2021,11,15,15,32,32.00
2021,11,15,15,33,26.90
2021,11,15,15,34,28.60
2021,11,15,15,35,32.70
2021,11,15,15,36,37.60
2021,11,15,15,37,33.90
2021,11,15,15,38,33.00
2021,11,15,15,39,30.70
2021,11,15,15,40,28.20
2021,11,15,15,41,32.60
2021,11,15,15,42,29.70
2021,11,15,15,43,31.20
2021,11,15,15,44,30.10
2021,11,15,15,45,27.90
2021,11,15,15,46,32.40
2021,11,15,15,47,35.20
2021,11,15,15,48,27.50
2021,11,15,15,49,33.50
2021,11,15,15,50,34.60
2021,11,15,15,51,38.70
2021,11,15,15,52,35.20
2021,11,15,15,53,40.50
2021,11,15,15,54,34.30
2021,11,15,15,55,44.70
2021,11,15,15,56,39.40
2021,11,15,15,57,35.30
2021,11,15,15,58,40.60
2021,11,15,15,59,33.00
2021,11,15,16,00,31.90
2021,11,15,16,01,46.10
2021,11,15,16,02,37.20
2021,11,15,16,03,42.80
2021,11,15,16,04,38.10
2021,11,15,16,05,36.90
2021,11,15,16,06,36.50
2021,11,15,16,07,33.20
2021,11,15,16,08,31.60
2021,11,15,16,09,35.20
2021,11,15,16,10,21.90
2021,11,15,16,11,29.00
2021,11,15,16,12,29.00
2021,11,15,16,13,29.00
2021,11,15,16,14,29.00
2021,11,15,16,15,23.80
2021,11,15,16,16,28.90
2021,11,15,16,17,33.00
2021,11,15,16,18,24.10
2021,11,15,16,19,28.00
2021,11,15,16,20,36.20
2021,11,15,16,21,28.10
2021,11,15,16,22,36.90
2021,11,15,16,23,40.20
2021,11,15,16,24,33.90
2021,11,15,16,25,34.90
2021,11,15,16,26,39.70
2021,11,15,16,27,30.20
2021,11,15,16,28,33.50
2021,11,15,16,29,34.00
2021,11,15,16,30,40.30
2021,11,15,16,31,39.30
2021,11,15,16,32,29.00
2021,11,15,16,33,36.00
2021,11,15,16,34,30.80
2021,11,15,16,35,27.00
2021,11,15,16,36,33.30
2021,11,15,16,37,30.70
2021,11,15,16,38,27.40
2021,11,15,16,39,29.90
2021,11,15,16,40,26.20
2021,11,15,16,41,39.50
2021,11,15,16,42,35.20
2021,11,15,16,43,35.40
2021,11,15,16,44,29.90
2021,11,15,16,45,32.00
2021,11,15,16,46,30.00
2021,11,15,16,47,31.70
2021,11,15,16,48,31.90
2021,11,15,16,49,28.40
2021,11,15,16,50,27.10
2021,11,15,16,51,24.20
2021,11,15,16,52,33.30
2021,11,15,16,53,30.10
2021,11,15,16,54,25.30
2021,11,15,16,55,33.00
2021,11,15,16,56,32.90
2021,11,15,16,57,32.00
2021,11,15,16,58,29.60
2021,11,15,16,59,26.00
2021,11,15,17,00,30.60
2021,11,15,17,01,34.70
2021,11,15,17,02,38.80
2021,11,15,17,03,25.60
2021,11,15,17,04,33.30
2021,11,15,17,05,27.00
2021,11,15,17,06,30.30
2021,11,15,17,07,32.70
2021,11,15,17,08,37.60
2021,11,15,17,09,24.40
2021,11,15,17,10,26.70
2021,11,15,17,11,28.60
2021,11,15,17,12,34.90
2021,11,15,17,13,35.30
2021,11,15,17,14,33.30
2021,11,15,17,15,26.90
2021,11,15,17,16,29.00
2021,11,15,17,17,32.00
2021,11,15,17,18,25.00
2021,11,15,17,19,27.80
2021,11,15,17,20,27.70
2021,11,15,17,21,44.30
2021,11,15,17,22,30.30
2021,11,15,17,23,23.90
2021,11,15,17,24,23.00
2021,11,15,17,25,34.40
2021,11,15,17,26,25.20
2021,11,15,17,27,24.90
2021,11,15,17,28,25.20
2021,11,15,17,29,26.90
2021,11,15,17,30,23.90
2021,11,15,17,31,28.00
2021,11,15,17,32,29.10
2021,11,15,17,33,30.70
2021,11,15,17,34,36.20
2021,11,15,17,35,32.10
2021,11,15,17,36,31.70
2021,11,15,17,37,22.20
2021,11,15,17,38,24.00
2021,11,15,17,39,28.00
2021,11,15,17,40,29.70
2021,11,15,17,41,33.30
2021,11,15,17,42,26.40
2021,11,15,17,43,28.20
2021,11,15,17,44,27.80
2021,11,15,17,45,31.80
2021,11,15,17,46,27.50
2021,11,15,17,47,27.60
2021,11,15,17,48,30.50
2021,11,15,17,49,29.40
2021,11,15,17,50,26.80
2021,11,15,17,51,33.60
2021,11,15,17,52,31.20
2021,11,15,17,53,29.50
2021,11,15,17,54,31.60
2021,11,15,17,55,28.70
2021,11,15,17,56,31.10
2021,11,15,17,57,28.40
2021,11,15,17,58,21.30
2021,11,15,17,59,31.20
2021,11,15,18,00,21.20
2021,11,15,18,01,24.80
2021,11,15,18,02,30.50
2021,11,15,18,03,25.00
2021,11,15,18,04,29.10
2021,11,15,18,05,24.50
2021,11,15,18,06,22.80
2021,11,15,18,07,30.70
2021,11,15,18,08,28.20
2021,11,15,18,09,31.00
2021,11,15,18,10,28.30
2021,11,15,18,11,36.00
2021,11,15,18,12,34.70
2021,11,15,18,13,35.20
2021,11,15,18,14,34.60
2021,11,15,18,15,33.70
2021,11,15,18,16,38.50
2021,11,15,18,17,35.60
2021,11,15,18,18,25.00
2021,11,15,18,19,31.00
2021,11,15,18,20,37.50
2021,11,15,18,21,33.20
2021,11,15,18,22,28.70
2021,11,15,18,23,27.80
2021,11,15,18,24,31.40
2021,11,15,18,25,26.40
2021,11,15,18,26,32.40
2021,11,15,18,27,27.10
2021,11,15,18,28,30.00
2021,11,15,18,29,26.90
2021,11,15,18,30,24.20
2021,11,15,18,31,28.60
2021,11,15,18,32,24.00
2021,11,15,18,33,28.10
2021,11,15,18,34,35.00
2021,11,15,18,35,29.30
2021,11,15,18,36,26.90
2021,11,15,18,37,29.10
2021,11,15,18,38,32.60
2021,11,15,18,39,36.90
2021,11,15,18,40,28.70
2021,11,15,18,41,28.50
2021,11,15,18,42,29.90
2021,11,15,18,43,36.90
2021,11,15,18,44,30.70
2021,11,15,18,45,30.70
2021,11,15,18,46,30.30
2021,11,15,18,47,30.50
2021,11,15,18,48,27.80
2021,11,15,18,49,31.40
2021,11,15,18,50,23.60
2021,11,15,18,51,34.40
2021,11,15,18,52,31.10
2021,11,15,18,53,25.40
2021,11,15,18,54,26.00
2021,11,15,18,55,27.90
2021,11,15,18,56,26.00
2021,11,15,18,57,27.40
2021,11,15,18,58,24.00
2021,11,15,18,59,23.10
2021,11,15,19,00,18.80
2021,11,15,19,01,26.30
2021,11,15,19,02,24.80
2021,11,15,19,03,23.30
2021,11,15,19,04,20.60
2021,11,15,19,05,26.50
2021,11,15,19,06,26.60
2021,11,15,19,07,19.30
2021,11,15,19,08,17.20
2021,11,15,19,09,17.10
2021,11,15,19,10,15.90
2021,11,15,19,11,19.20
2021,11,15,19,12,21.20
2021,11,15,19,13,17.10
2021,11,15,19,14,17.30
2021,11,15,19,15,18.50
2021,11,15,19,16,24.30
2021,11,15,19,17,23.00
2021,11,15,19,18,19.10
2021,11,15,19,19,17.80
2021,11,15,19,20,21.50
2021,11,15,19,21,25.70
2021,11,15,19,22,18.30
2021,11,15,19,23,15.90
2021,11,15,19,24,18.40
2021,11,15,19,25,21.30
2021,11,15,19,26,21.30
2021,11,15,19,27,14.60
2021,11,15,19,28,19.40
2021,11,15,19,29,22.20
2021,11,15,19,30,16.20
2021,11,15,19,31,22.40
2021,11,15,19,32,17.90
2021,11,15,19,33,24.10
2021,11,15,19,34,20.80
2021,11,15,19,35,23.60
2021,11,15,19,36,22.00
2021,11,15,19,37,24.30
2021,11,15,19,38,29.70
2021,11,15,19,39,26.10
2021,11,15,19,40,28.80
2021,11,15,19,41,22.70
2021,11,15,19,42,24.70
2021,11,15,19,43,24.80
2021,11,15,19,44,28.00
2021,11,15,19,45,33.30
2021,11,15,19,46,27.80
2021,11,15,19,47,24.10
2021,11,15,19,48,24.90
2021,11,15,19,49,24.70
2021,11,15,19,50,23.20
2021,11,15,19,51,28.90
2021,11,15,19,52,25.00
2021,11,15,19,53,28.50
2021,11,15,19,54,29.70
2021,11,15,19,55,22.40
2021,11,15,19,56,19.90
2021,11,15,19,57,28.10
2021,11,15,19,58,29.90
2021,11,15,19,59,23.80
2021,11,15,20,00,27.40
2021,11,15,20,01,25.10
2021,11,15,20,02,24.50
2021,11,15,20,03,23.50
2021,11,15,20,04,20.70
2021,11,15,20,05,20.60
2021,11,15,20,06,29.90
2021,11,15,20,07,26.10
2021,11,15,20,08,21.80
2021,11,15,20,09,26.40
2021,11,15,20,10,20.50
2021,11,15,20,11,24.70
2021,11,15,20,12,26.90
2021,11,15,20,13,24.50
2021,11,15,20,14,19.70
2021,11,15,20,15,27.10
2021,11,15,20,16,26.10
2021,11,15,20,17,25.70
2021,11,15,20,18,23.90
2021,11,15,20,19,16.60
2021,11,15,20,20,20.90
2021,11,15,20,21,18.50
2021,11,15,20,22,18.10
2021,11,15,20,23,30.30
2021,11,15,20,24,24.70
2021,11,15,20,25,30.90
2021,11,15,20,26,27.40
2021,11,15,20,27,23.90
2021,11,15,20,28,24.70
2021,11,15,20,29,31.50
2021,11,15,20,30,29.00
2021,11,15,20,31,29.00
2021,11,15,20,32,29.00
2021,11,15,20,33,29.00
2021,11,15,20,34,29.00
2021,11,15,20,35,29.00
2021,11,15,20,36,29.00
2021,11,15,20,37,29.00
2021,11,15,20,38,29.00
2021,11,15,20,39,29.00
2021,11,15,21,13,22.00
2021,11,15,21,14,26.10
2021,11,15,21,15,29.70
2021,11,15,21,16,22.10
2021,11,15,21,17,15.90
2021,11,15,21,18,17.00
2021,11,15,21,19,19.60
2021,11,15,21,20,19.40
2021,11,15,21,21,20.00
2021,11,15,21,22,17.80
2021,11,15,21,23,19.80
2021,11,15,21,24,19.70
2021,11,15,21,25,22.30
2021,11,15,21,26,22.70
2021,11,15,21,27,18.20
2021,11,15,21,28,16.60
2021,11,15,21,29,19.00
2021,11,15,21,30,22.30
2021,11,15,21,31,15.00
2021,11,15,21,32,18.80
2021,11,15,21,33,16.80
2021,11,15,21,34,18.70
2021,11,15,21,35,18.80
2021,11,15,21,36,18.60
2021,11,15,21,37,16.60
2021,11,15,21,38,23.70
2021,11,15,21,39,18.20
2021,11,15,21,40,14.60
2021,11,15,21,41,12.90
2021,11,15,21,42,18.60
2021,11,15,21,43,15.90
2021,11,15,21,44,20.20
2021,11,15,21,45,20.50
2021,11,15,21,46,20.50
2021,11,15,21,47,20.20
2021,11,15,21,48,23.50
2021,11,15,21,49,20.90
2021,11,15,21,50,20.10
2021,11,15,21,51,23.10
2021,11,15,21,52,21.60
2021,11,15,21,53,21.10
2021,11,15,21,54,20.80
2021,11,15,21,55,22.80
2021,11,15,21,56,19.30
2021,11,15,21,57,19.20
2021,11,15,21,58,16.90
2021,11,15,21,59,18.70
2021,11,15,22,00,25.20
2021,11,15,22,01,19.50
2021,11,15,22,02,23.10
2021,11,15,22,03,15.70
2021,11,15,22,04,19.50
2021,11,15,22,05,19.20
2021,11,15,22,06,26.20
2021,11,15,22,07,17.10
2021,11,15,22,08,20.20
2021,11,15,22,09,19.70
2021,11,15,22,10,17.40
2021,11,15,22,11,14.70
2021,11,15,22,12,13.60
2021,11,15,22,13,20.00
2021,11,15,22,14,17.20
2021,11,15,22,15,13.90
2021,11,15,22,16,13.80
2021,11,15,22,17,15.20
2021,11,15,22,18,14.90
2021,11,15,22,19,19.00
2021,11,15,22,20,17.70
2021,11,15,22,21,15.00
2021,11,15,22,22,18.50
2021,11,15,22,23,13.60
2021,11,15,22,24,14.60
2021,11,15,22,25,14.30
2021,11,15,22,26,13.40
2021,11,15,22,27,11.40
2021,11,15,22,28,18.00
2021,11,15,22,29,24.10
2021,11,15,22,30,26.80
2021,11,15,22,31,23.80
2021,11,15,22,32,22.80
2021,11,15,22,33,26.30
2021,11,15,22,34,20.80
2021,11,15,22,35,21.60
2021,11,15,22,36,20.60
2021,11,15,22,37,14.60
2021,11,15,22,38,12.90
2021,11,15,22,39,12.90
2021,11,15,22,40,12.90
2021,11,15,22,41,12.90
2021,11,15,22,42,17.60
2021,11,15,22,43,23.70
2021,11,15,22,44,19.10
2021,11,15,22,45,24.90
2021,11,15,22,46,20.70
2021,11,15,22,47,22.90
2021,11,15,22,48,17.40
2021,11,15,22,49,16.80
2021,11,15,22,50,16.90
2021,11,15,22,51,22.50
2021,11,15,22,52,17.90
2021,11,15,22,53,13.40
2021,11,15,22,54,12.60
2021,11,15,22,55,19.40
2021,11,15,22,56,19.60
2021,11,15,22,57,15.00
2021,11,15,22,58,16.60
2021,11,15,22,59,30.70
2021,11,15,23,00,21.00
2021,11,15,23,01,20.70
2021,11,15,23,02,22.30
2021,11,15,23,03,22.50
2021,11,15,23,04,17.40
2021,11,15,23,05,17.40
2021,11,15,23,06,15.10
2021,11,15,23,07,14.70
2021,11,15,23,08,13.00
2021,11,15,23,09,10.20
2021,11,15,23,10,10.40
2021,11,15,23,11,10.60
2021,11,15,23,12,9.70
2021,11,15,23,13,15.40